Regional Weather Roundup
Issued by NWS

Home | Current Version | Previous Version | Graphics & Text | Print | Product List | Glossary On
Versions: 1 2 3 4 5 6 7 8 9 10 11 12 13 14 15 16 17 18 19 20 21 22 23 24 25 26 27 28 29 30 31 32 33 34 35 36 37 38 39 40 41 42 43 44 45 46 47 48 49 50
000
ASUS43 KDTX 300001
RWRMI
MICHIGAN HOURLY REGIONAL WEATHER ROUNDUP
NATIONAL WEATHER SERVICE DETROIT/PONTIAC MI
800 PM EDT THU SEP 29 2016

NOTE: "FAIR" INDICATES FEW OR NO CLOUDS BELOW 12,000 FEET WITH NO
SIGNIFICANT WEATHER AND/OR OBSTRUCTION TO VISIBILITY.

MIZ047>049-052>055-059>063-066>070-074>076-081>083-300100-
SOUTHEAST LOWER MICHIGAN

CITY           SKY/WX    TMP DP  RH WIND       PRES   REMARKS
ADRIAN         LGT RAIN  60  60 100 NE13      30.16S FOG
6HR MIN TEMP:  60; 6HR MAX TEMP:  65; 6HR PCP:  0.09;

ALMA           CLOUDY    59  58  98 N9G20     30.27S
ANN ARBOR      LGT RAIN  60  59  96 N14       30.16F FOG
BAD AXE        CLOUDY    57  56  94 NE9       30.30S FOG
6HR MIN TEMP:  57; 6HR MAX TEMP:  62;

CARO           CLOUDY    58  56  93 NE8       30.26S
DETROIT CITY   CLOUDY    60  59  96 NE14G24   30.18F
6HR MIN TEMP:  60; 6HR MAX TEMP:  65; 6HR PCP:  0.25;

DETROIT        LGT RAIN  60  59  96 NE14      30.16F FOG
6HR MIN TEMP:  60; 6HR MAX TEMP:  64; 6HR PCP:  0.25;

FLINT          CLOUDY    59  57  93 NE16      30.23R
6HR MIN TEMP:  59; 6HR MAX TEMP:  62; 6HR PCP:  0.03;

GROSSE ILE     CLOUDY    61  58  91 NE14G23   30.14F
6HR MIN TEMP:  60; 6HR MAX TEMP:  64; 6HR PCP:  0.14;

HILLSDALE      RAIN      59  57  94 NE12      30.16S
HOWELL         CLOUDY    59  58  96 NE9       30.21S
6HR MIN TEMP:  59; 6HR MAX TEMP:  61;


CITY           SKY/WX    TMP DP  RH WIND       PRES   REMARKS
JACKSON        CLOUDY    60  59  96 NE12      30.18S
6HR MIN TEMP:  60; 6HR MAX TEMP:  62; 6HR PCP:  0.24;

LAMBERTVILLE   LGT RAIN  61  59  93 NE10G16   30.13F
6HR MIN TEMP:  61; 6HR MAX TEMP:  67;

LANSING        CLOUDY    59  56  89 NE13G21   30.23S
6HR MIN TEMP:  58; 6HR MAX TEMP:  60; 6HR PCP:  0.14;

LAPEER         DRIZZLE   59  57  94 NE6       30.24S
MASON          CLOUDY    58  57  95 NE8G16    30.21S
MONROE         CLOUDY    60  60  98 NE10G21   30.13F
6HR MIN TEMP:  60; 6HR MAX TEMP:  62; 6HR PCP:  0.24;

MT. CLEMENS    CLOUDY    60  58  94 NE14      30.20R
6HR MIN TEMP:  60; 6HR MAX TEMP:  66; 6HR PCP:  0.33;

PONTIAC        LGT RAIN  59  57  93 NE12      30.20S FOG
6HR MIN TEMP:  59; 6HR MAX TEMP:  64; 6HR PCP:  0.15;

PORT HURON     CLOUDY    59  57  94 NE14      30.24R
TRI CITIES     CLOUDY    60  57  89 NE16      30.28S
6HR MIN TEMP:  59; 6HR MAX TEMP:  62; 6HR PCP: TRACE;

MIDLAND        DRIZZLE   59  57  94 NE6       30.27F
6HR MIN TEMP:  59; 6HR MAX TEMP:  62;

TROY           RAIN      60  58  90 NE12G21   30.22S
SAGINAW HB     CLOUDY    59  55  88 NE9G17    30.26S
$$
MIZ043>046-050>051-056>058-064>065-071>073-077>080-300100-
SOUTHWEST LOWER MICHIGAN

CITY           SKY/WX    TMP DP  RH WIND       PRES   REMARKS
BATTLE CREEK   LGT RAIN  59  58  96 NE12      30.21S
6HR MIN TEMP:  59; 6HR MAX TEMP:  64; 6HR PCP:  0.14;

BENTON HARBOR  CLOUDY    61  56  83 NE12G18   30.20S
6HR MIN TEMP:  61; 6HR MAX TEMP:  68;

BIG RAPIDS     CLOUDY    62  54  77 NE7       30.29S
6HR MIN TEMP:  61; 6HR MAX TEMP:  68;

COLDWATER      RAIN      60  59  97 N12G18    30.17F
6HR MIN TEMP:  60; 6HR MAX TEMP:  69;

FREMONT        CLOUDY    60  53  76 NE8       30.27S
HOLLAND        CLOUDY    61  55  81 NE10      30.23S
6HR MIN TEMP:  61; 6HR MAX TEMP:  65; 6HR PCP: TRACE;

GRAND RAPIDS   LGT RAIN  59  55  87 NE16      30.24F
6HR MIN TEMP:  59; 6HR MAX TEMP:  62; 6HR PCP:  0.01;

IONIA          RAIN      57  56  94 N13       30.23F
6HR MIN TEMP:  57; 6HR MAX TEMP:  59; 6HR PCP:  0.03;

KALAMAZOO      LGT RAIN  59  56  89 N6        30.21F FOG
6HR MIN TEMP:  59; 6HR MAX TEMP:  67; 6HR PCP:  0.13;

LUDINGTON      CLOUDY    64  52  66 E14G20    30.29R
6HR MIN TEMP:  64; 6HR MAX TEMP:  73;

MARSHALL       LGT RAIN  59  58  98 N5        30.19S
6HR MIN TEMP:  59; 6HR MAX TEMP:  64; 6HR PCP:  0.29;

MOUNT PLEASANT LGT RAIN  58  57  94 NE8       30.28S
6HR MIN TEMP:  58; 6HR MAX TEMP:  63; 6HR PCP:  0.01;

MUSKEGON       CLOUDY    62  55  77 NE13      30.26R
6HR MIN TEMP:  62; 6HR MAX TEMP:  66; 6HR PCP:  0.02;

SOUTH HAVEN    CLOUDY    61  58  90 E8        30.21F
$$
MIZ016>042-300100-
NORTHERN LOWER MICHIGAN

CITY           SKY/WX    TMP DP  RH WIND       PRES   REMARKS
ALPENA         CLOUDY    62  54  74 NE13      30.38R
6HR MIN TEMP:  62; 6HR MAX TEMP:  63; 6HR PCP: TRACE;

BEAVER ISLAND  CLEAR     61  54  76 E6        30.39S
6HR MIN TEMP:  61; 6HR MAX TEMP:  67;

BELLAIRE       CLEAR     60  52  74 N5        30.36R
6HR MIN TEMP:  60; 6HR MAX TEMP:  71;

CADILLAC       CLOUDY    58  53  83 NE12      30.32S
CHARLEVOIX     CLEAR     63  53  69 NE7       30.41R
FRANKFORT      CLEAR     64  51  62 E7        30.33R
GAYLORD        MOCLDY    60  51  72 NE9       30.37S
6HR MIN TEMP:  60; 6HR MAX TEMP:  66;

GRAYLING       CLOUDY    60  53  78 NE10      30.35F
HARBOR SPRINGS CLEAR     60  53  75 NE7       30.38S HAZE
HOUGHTON LAKE  LGT RAIN  56  55  97 NE9       30.34F FOG
6HR MIN TEMP:  56; 6HR MAX TEMP:  68; 6HR PCP: TRACE;

MANISTEE       PTCLDY    63  51  65 E16G25    30.30R
OSCODA         CLOUDY    60  55  82 E16G24    30.32F
6HR MIN TEMP:  60; 6HR MAX TEMP:  62;

PELLSTON       CLEAR     57  51  80 CALM      30.39S
6HR MIN TEMP:  57; 6HR MAX TEMP:  67;

ROGERS CITY    CLOUDY    62  57  84 E3        30.40R
TRAVERSE CITY  MOCLDY    64  51  62 E15G22    30.34R
6HR MIN TEMP:  64; 6HR MAX TEMP:  72;

$$
MIZ007>008-015-300100-
EASTERN UPPER MICHIGAN

CITY           SKY/WX    TMP DP  RH WIND       PRES   REMARKS
KINROSS        CLEAR     62  55  77 N6        30.41S
6HR MIN TEMP:  62; 6HR MAX TEMP:  71;

MACKINAC ISLAN CLEAR     60  54  79 E7        30.40R
NEWBERRY       CLEAR     60  53  80 N3        30.41S
6HR MIN TEMP:  60; 6HR MAX TEMP:  70;

S. S. MARIE    CLEAR     66  49  54 NE5       30.41R
6HR MIN TEMP:  66; 6HR MAX TEMP:  74;

MUNISING         N/A     60  58  92 N9        30.43S
6HR MIN TEMP:  60; 6HR MAX TEMP:  65;

$$
MIZ004>006-011>014-085-300100-
CENTRAL UPPER MICHIGAN

CITY           SKY/WX    TMP DP  RH WIND       PRES   REMARKS
MANISTIQUE     CLEAR     61  52  72 NE6       30.39S
6HR MIN TEMP:  60; 6HR MAX TEMP:  73;

ESCANABA       CLEAR     61  53  75 N9        30.40R
6HR MIN TEMP:  61; 6HR MAX TEMP:  73;

MENOMINEE      CLEAR     62  57  83 NE9       30.38R
6HR MIN TEMP:  62; 6HR MAX TEMP:  69;

SAWYER-GWINN   MOCLDY    55  52  88 N12       30.45S
$$
MIZ001>003-009>011-084-300100-
WESTERN UPPER MICHIGAN

CITY           SKY/WX    TMP DP  RH WIND       PRES   REMARKS
IRON MOUNTAIN  CLEAR     60  48  64 N7        30.41R
6HR MIN TEMP:  60; 6HR MAX TEMP:  72;

HOUGHTON       CLEAR     54  51  90 NE3       30.46S
6HR MIN TEMP:  54; 6HR MAX TEMP:  65;

COPPER HARBOR    N/A     57  54  89 E3        30.47S
6HR MIN TEMP:  56; 6HR MAX TEMP:  57;

IRONWOOD       CLOUDY    56  53  90 NE8       30.46S
6HR MIN TEMP:  56; 6HR MAX TEMP:  63;

$$

ABBREVIATIONS USED IN REMARKS
   TC - TEMPERATURE IN CELSIUS
  WCI - WIND CHILL INDEX
   HX - HEAT INDEX
  VSB - VISIBILITY





USA.gov is the U.S. government's official web portal to all federal, state and local government web resources and services.